Retour au catalogue

COSMOS 909

ActifMilitaireUNKNOWN
NORAD 10010·PAYLOAD·🇷🇺 Russia

Lancé May 19, 1977 depuis Plesetsk Cosmodrome

Loading…

Prochains Passages (prochaines 24 heures)

TLE

FraisSource: Space-Track

Époque: Sep 14, 2026, 14:29 UTC

1 10010U 77036A   26257.60389375 -.00000066  00000-0 -43690-4 0  9998
2 10010  65.8632  25.6522 0702453  24.8442 338.4711 12.30355255196319

Suivez COSMOS 909 en temps réel avec AllMySat

Download on the App Store